Theta_e
316 319 322 324 325 326 325 321 319 318 318 318 317 317 317 318 320 322 323 318 324 327 327 327 328 328 329 328 326 326 329 327 324 322 321 319 319 318 318 317 317 317 317
316 319 319 322 324 325 325 321 318 317 318 317 316 315 316 317 318 319 320 321 321 323 324 325 327 328 328 330 328 329 328 325 322 320 318 318 317 317 316 316 317 316 317
315 316 318 321 324 325 322 319 316 318 318 318 317 316 316 316 316 316 317 318 319 318 324 326 327 327 328 329 329 327 325 323 320 318 317 316 316 315 316 317 317 317 317
313 313 316 318 323 321 319 317 315 314 315 317 316 317 317 317 316 316 316 318 318 322 322 322 323 324 325 326 327 326 323 321 319 317 315 315 315 316 317 317 318 318 318
310 311 313 316 319 321 318 317 315 315 314 316 316 317 317 317 317 316 316 316 319 318 315 315 315 318 321 322 323 323 322 320 317 315 314 314 315 316 317 319 318 318 317
308 309 311 313 316 320 319 318 316 316 316 316 316 316 316 316 316 316 317 318 317 314 311 309 309 311 315 318 319 321 321 318 315 314 313 314 315 315 319 319 318 319 319
307 308 310 312 315 317 319 318 316 315 315 317 315 314 311 311 310 310 312 309 307 305 305 305 306 305 306 311 313 316 317 316 314 313 313 314 314 317 317 318 321 319 319
305 307 309 311 313 316 319 319 318 317 316 317 312 312 306 307 307 306 306 303 301 301 301 302 301 301 302 304 307 309 310 312 312 312 312 314 315 316 316 318 319 318 318
305 307 308 309 311 316 319 319 319 317 314 316 316 313 307 305 305 306 302 301 300 300 301 299 299 299 300 301 302 303 305 307 309 309 312 314 315 316 316 317 317 317 316
304 306 307 309 310 313 319 320 321 319 316 313 313 311 311 312 305 301 303 300 299 297 297 297 297 297 298 299 300 301 303 304 305 307 309 312 314 315 316 316 316 315 314
304 304 305 307 308 312 319 321 320 318 317 315 314 310 310 308 309 307 300 297 297 296 296 296 295 295 297 297 300 301 302 303 304 305 308 309 311 313 314 314 314 313 312
302 303 304 306 310 313 319 321 320 319 317 317 314 313 310 309 306 306 304 301 298 294 295 295 294 294 295 295 296 297 301 303 304 305 307 307 309 311 311 311 311 310 310
299 300 302 305 313 317 321 320 320 318 317 316 315 314 312 311 309 309 307 303 298 294 293 293 293 294 294 294 294 295 298 302 303 305 306 306 307 308 308 309 308 307 306
298 300 302 305 310 320 321 320 319 318 317 316 315 315 314 312 312 312 309 305 299 295 293 291 292 292 292 293 294 294 298 300 302 303 304 305 305 305 305 305 305 304 303
298 300 302 305 311 319 320 320 318 317 317 316 315 316 315 313 314 313 312 311 307 298 293 290 289 291 291 292 292 294 295 296 301 302 303 303 303 302 302 302 302 301 302
298 300 302 304 310 318 318 318 317 316 316 316 315 314 314 313 313 315 312 313 311 304 292 292 290 290 291 291 292 293 294 294 297 300 301 300 300 299 299 299 298 299 299
298 299 301 304 307 317 318 317 316 316 314 314 314 314 313 313 313 312 312 312 309 303 292 288 290 290 289 289 290 291 293 293 296 298 300 299 297 296 296 296 296 296 296
298 299 300 302 305 314 316 316 314 315 314 312 312 312 310 309 309 310 311 309 304 300 295 287 287 287 288 289 289 290 290 291 293 296 298 298 296 295 294 294 293 293 293
297 298 299 300 302 307 310 312 312 311 311 310 310 309 308 308 305 306 306 302 300 296 293 289 286 288 287 287 288 286 288 289 290 292 295 297 296 294 293 293 292 292 292
295 296 297 297 299 302 303 305 305 304 302 300 300 301 303 305 304 304 302 300 296 293 291 289 288 286 286 286 287 286 286 287 288 290 291 293 294 294 293 292 292 291 291
294 295 295 295 296 297 299 300 299 299 298 295 293 293 293 291 292 298 299 297 296 292 290 289 286 286 284 284 285 285 285 286 287 289 289 289 291 292 293 292 291 292 291
293 294 293 293 294 294 294 295 297 295 294 293 291 290 291 290 292 293 294 295 295 292 290 289 287 286 285 285 284 284 284 286 286 288 289 288 289 289 290 292 293 292 291
292 292 292 293 292 292 292 292 292 293 291 290 289 288 287 287 288 291 291 291 289 292 293 291 289 288 285 285 285 284 284 285 285 285 287 288 288 289 290 290 292 293 291
290 291 291 292 291 291 291 291 290 290 288 286 286 287 286 286 287 288 288 287 287 287 287 287 291 290 289 287 288 288 286 284 283 283 283 287 288 289 289 289 290 293 292
288 289 289 290 290 290 291 291 290 288 286 285 286 286 286 286 287 288 286 285 284 284 286 288 288 288 289 288 288 286 284 285 283 283 282 285 284 286 288 289 289 291 292
286 286 286 286 285 287 290 290 289 287 286 284 284 285 284 286 288 288 285 283 282 282 281 282 283 286 288 288 288 288 285 285 284 284 283 285 281 283 283 285 287 288 290
Wind_Speed
3 3 2 2 2 4 5 6 6 5 6 6 4 2 4 6 5 3 3 7 7 6 7 7 9 9 10 10 8 8 15 16 14 14 13 13 14 15 15 16 16 16 17
2 3 2 2 5 6 7 10 8 7 7 7 6 2 2 5 5 6 3 5 8 8 7 7 8 9 10 13 6 15 17 14 12 14 13 14 15 15 16 16 17 16 16
4 3 2 3 3 5 5 9 9 7 7 6 7 6 2 5 5 6 5 3 5 7 8 9 10 12 13 16 17 18 15 14 14 14 14 14 15 15 16 16 15 15 15
6 3 2 2 2 6 8 4 10 8 6 5 5 5 2 5 4 6 5 4 4 6 10 15 14 12 13 16 16 16 14 16 14 13 13 14 15 16 15 13 13 14 14
6 4 2 2 3 5 9 9 7 8 10 7 6 5 3 3 3 4 5 5 6 6 6 15 17 15 13 15 16 14 14 12 12 12 13 14 15 14 13 16 17 15 14
6 5 4 2 3 5 8 8 9 8 8 8 7 5 3 3 4 3 6 6 7 8 7 7 7 9 16 16 13 13 12 12 11 13 13 14 13 13 14 15 14 13 14
4 5 3 3 4 4 9 11 9 11 6 7 7 6 6 6 7 4 6 6 8 8 7 7 5 4 6 15 13 12 12 11 12 13 14 12 12 12 15 14 17 15 19
3 4 4 3 4 3 11 11 10 6 3 9 4 3 4 3 6 6 6 6 8 6 7 8 8 8 6 6 10 12 11 12 12 13 12 12 12 13 13 15 17 20 20
3 4 4 5 4 4 4 10 11 7 6 7 9 3 3 3 4 3 7 5 7 6 7 6 8 7 7 6 6 7 12 13 13 12 12 12 12 13 13 16 18 20 20
3 4 4 6 5 5 9 9 9 7 6 8 3 2 2 5 4 4 3 5 6 7 6 4 5 6 6 4 6 9 9 12 11 11 13 12 14 14 16 16 19 20 20
3 4 4 7 8 7 8 11 11 9 6 6 5 3 2 3 5 4 4 3 4 4 3 4 4 5 4 4 5 7 8 10 9 10 10 12 14 14 15 17 18 19 18
3 4 6 7 9 10 9 11 11 11 8 7 4 4 4 3 3 4 4 3 3 2 2 3 3 3 3 3 3 8 9 8 9 10 11 12 14 14 16 16 18 17 18
3 7 9 8 5 11 10 10 11 10 9 9 8 5 3 3 3 4 6 4 3 2 2 3 3 2 3 2 4 6 10 9 10 11 11 12 13 16 16 18 17 17 16
6 8 8 8 3 9 10 10 8 7 8 8 9 6 4 3 3 3 6 7 3 2 2 3 1 2 2 2 4 6 6 11 10 10 10 12 13 15 16 17 15 16 15
6 8 9 8 4 12 11 12 8 8 8 7 7 7 4 3 3 3 4 4 5 4 2 3 2 2 2 2 3 3 4 10 9 10 10 13 14 15 16 14 13 14 15
7 8 9 6 2 11 11 10 8 8 7 5 5 7 4 3 4 3 3 3 2 4 4 2 2 3 4 3 3 3 4 6 10 8 11 14 14 13 13 12 12 14 15
9 8 9 8 6 11 10 9 8 8 8 7 6 7 6 6 5 4 3 2 3 3 5 2 2 4 3 4 3 3 3 3 4 8 10 13 13 10 11 11 12 13 14
6 7 9 7 7 7 9 9 8 8 8 7 6 7 6 4 5 5 3 4 4 3 4 5 3 3 3 5 4 4 3 2 2 6 8 11 12 10 10 11 12 12 13
7 8 8 9 8 8 7 6 7 6 6 6 6 8 5 6 4 3 4 5 4 4 4 6 5 3 2 3 3 1 2 1 1 2 6 8 11 10 9 9 9 10 10
7 7 8 8 9 9 8 7 7 8 9 9 9 8 6 5 6 6 5 5 5 5 6 6 4 4 3 3 2 3 2 1 2 1 3 4 5 8 8 7 7 6 7
7 7 8 9 9 9 6 8 9 9 9 10 9 8 8 7 10 6 5 5 6 4 5 4 4 3 3 3 6 3 4 2 2 1 2 1 2 2 2 3 1 1 4
7 8 9 9 10 7 13 14 11 9 8 9 8 8 7 7 10 10 11 9 5 6 5 3 3 3 4 4 4 4 4 3 3 3 3 3 3 3 2 1 3 4 2
6 8 6 8 9 8 12 14 13 8 9 7 7 6 5 4 5 7 11 12 9 9 1 4 4 4 5 8 9 7 6 5 4 1 3 3 3 4 4 2 4 5 3
5 5 6 7 8 6 11 13 13 9 8 7 6 6 5 5 4 5 6 6 4 3 2 1 3 4 4 9 10 8 8 5 2 2 2 3 3 3 3 3 8 5 6
6 7 5 6 6 6 9 9 9 7 6 6 4 5 5 5 7 7 6 6 3 2 1 4 5 6 10 15 12 9 7 7 4 3 4 2 3 2 2 6 6 11 8
5 4 6 7 6 6 11 11 8 3 4 3 3 5 3 3 4 4 4 5 5 4 2 0 2 3 6 11 18 9 9 9 3 3 6 5 3 3 3 3 5 5 4
Wind_Direction
334 317 351 296 254 133 123 121 113 136 127 105 73 51 123 112 126 121 107 89 72 79 77 61 48 44 43 32 35 45 75 67 57 50 31 26 19 15 6 6 6 358 359
339 309 341 319 241 197 164 153 150 149 129 122 117 121 146 123 140 122 114 98 85 73 71 65 63 53 41 28 61 80 71 60 53 48 34 23 19 16 8 8 4 1 358
313 320 324 239 207 120 141 149 131 137 129 111 122 102 214 122 133 123 112 115 100 72 65 67 72 58 53 46 70 68 59 55 46 42 32 25 19 15 13 6 1 359 2
320 313 299 320 164 146 127 123 143 141 135 131 129 113 119 105 135 110 113 113 109 106 70 77 67 59 56 50 49 61 58 47 40 36 32 24 23 18 12 4 8 15 18
311 311 280 266 26 165 144 143 154 164 159 157 132 124 119 105 112 107 128 100 91 90 87 73 63 47 54 57 35 46 54 53 41 34 32 27 25 20 15 28 34 40 41
307 312 314 353 218 221 147 150 159 159 155 150 143 135 115 102 85 98 107 96 89 82 79 69 67 53 52 58 41 37 48 43 35 35 32 28 22 26 23 31 27 47 47
319 308 292 274 242 251 161 158 149 159 162 145 142 124 67 72 69 50 82 82 78 72 67 67 73 67 53 55 47 34 37 38 41 33 32 26 24 20 37 27 45 53 51
301 281 268 283 287 262 167 157 161 169 147 160 135 121 137 103 60 38 67 76 79 75 74 64 66 63 57 55 41 40 33 40 39 35 30 27 24 34 39 36 40 47 45
293 276 266 258 257 255 181 168 172 165 146 162 159 128 135 125 124 56 55 72 79 78 73 68 67 65 62 61 49 42 40 39 38 35 30 21 27 47 46 44 43 47 44
303 280 276 251 238 241 205 175 169 173 146 158 126 87 60 125 145 136 106 66 69 71 74 70 71 66 58 55 42 25 46 49 43 36 22 26 32 42 50 49 48 47 45
341 299 295 255 232 224 228 174 170 170 164 156 150 134 94 76 99 145 132 140 85 66 71 74 75 70 63 50 49 33 34 57 47 28 30 44 36 42 52 53 53 49 44
318 306 315 279 224 210 218 167 163 167 162 152 137 156 140 156 148 132 120 119 121 109 84 77 75 71 58 47 36 39 24 55 42 35 48 47 40 49 56 57 56 50 45
332 345 323 302 227 192 186 158 160 161 159 157 156 163 124 120 130 106 109 130 143 152 138 73 69 78 61 48 33 30 19 40 48 46 58 61 57 56 58 60 56 53 46
330 313 307 293 292 167 156 150 154 154 156 144 151 155 145 150 138 135 145 150 132 136 153 123 94 75 78 47 46 38 32 28 48 53 59 69 69 68 61 57 54 53 52
333 314 311 312 343 149 144 150 152 149 151 154 161 156 150 146 126 127 142 163 142 159 157 158 141 164 136 105 59 70 53 40 44 63 73 73 67 65 62 62 56 56 51
327 323 321 334 12 140 144 143 138 137 143 150 147 153 142 134 145 143 146 150 120 120 124 138 159 145 156 117 83 81 74 62 37 74 87 86 72 70 70 64 63 57 53
335 321 342 353 10 135 133 126 132 138 149 147 144 150 154 146 141 135 136 136 119 105 113 117 94 131 136 150 136 107 86 68 48 55 96 99 94 87 77 70 64 59 55
331 357 358 354 17 102 116 130 134 143 140 137 139 128 139 130 131 137 140 124 120 104 125 131 118 142 160 165 158 155 124 85 78 44 108 114 104 94 84 75 66 58 56
14 13 14 22 17 51 86 93 109 113 118 121 132 133 132 124 112 115 110 109 111 90 92 139 129 155 118 162 171 95 133 157 13 35 67 110 116 103 88 76 68 61 56
31 26 31 28 33 47 56 70 79 80 76 72 66 61 74 107 128 120 106 114 109 108 111 116 121 137 137 158 156 163 189 239 167 75 74 88 91 112 95 75 63 54 49
41 39 46 44 49 51 45 74 79 79 87 83 67 66 59 57 69 90 128 131 125 107 119 120 127 134 156 154 199 159 185 172 234 201 151 167 143 135 150 117 130 118 79
53 55 48 47 57 55 62 70 83 84 79 83 88 69 60 53 61 78 91 100 131 139 139 147 149 170 179 154 144 162 151 171 219 198 203 202 196 202 190 226 265 191 136
73 70 73 70 66 64 67 84 88 89 88 92 91 96 86 70 72 90 87 91 78 63 122 164 172 177 175 177 158 164 177 170 187 140 232 224 196 212 199 203 300 209 191
39 37 58 71 85 76 89 90 97 102 97 91 99 101 107 97 94 128 111 94 96 102 79 199 212 187 177 166 178 180 172 138 151 205 201 228 191 235 169 239 255 242 208
39 42 33 43 54 60 70 82 98 96 99 94 99 117 119 134 141 136 124 133 150 148 26 66 214 212 183 176 159 134 161 165 209 245 194 233 178 230 222 246 249 238 227
63 44 45 32 35 46 40 48 45 49 101 99 76 65 88 116 136 152 143 160 178 189 188 191 43 69 168 178 173 184 164 176 164 204 183 200 172 215 270 216 229 213 220